sat.trackr.live / text

‹ back to catalog

STARLINK-32538

NORAD 62170 · 2024-225H

PAYLOAD ACTIVE UNKNOWN

§ Identity

Operator
Country
US
Launch date
2024-11-30
Launch site
AFWTR
Launch vehicle
Mass (kg)
RCS (m²)

Purposes: comms

External: N2YO · Heavens-Above · Gunter

§ Orbital elements

Epoch: 2026-05-24T22:36:35.857152Z

Period
96.11 min
Inclination
70.0018°
Eccentricity
0.0002687
Mean motion
14.98337375 rev/d
Perigee alt
570.2 km
Apogee alt
573.9 km
Semi-major
6,950.2 km
B*
2.4273e-4
RAAN
332.3268°
Arg perigee
267.4844°
Mean anomaly
92.6008°
Rev number
8,129

§ Raw data

STARLINK-325381 62170U 24225H   26144.94208168  .00002805  00000+0  24273-3 0  99912 62170  70.0018 332.3268 0002687 267.4844  92.6008 14.98337375 81294

JSON: /api/v1/satellites/62170 · /tle

For live sub-satellite position, see the globe view (requires WebGL).

§ Visibility from observer

Set your observer location to see the next 7 days of passes ≥ 10°. The values pass through the URL so the page stays shareable.

No JS? Fill the form by hand. The geolocation button needs JavaScript.